Date,TemperatureHighF,TemperatureAvgF,TemperatureLowF,DewpointHighF,DewpointAvgF,DewpointLowF,HumidityHigh,HumidityAvg,HumidityLow,PressureMaxIn,PressureMinIn,WindSpeedMaxMPH,WindSpeedAvgMPH,GustSpeedMaxMPH,PrecipitationSumIn
2013-1-1,78.0,70.4,63.0,65.0,61.2,58.0,91,73,56,30.19,30.04,15,6,31,0.00
2013-1-2,80.0,69.6,60.0,67.0,63.6,60.0,98,83,56,30.08,29.98,20,4,33,0.00
2013-1-3,81.0,71.7,65.0,68.0,66.3,64.0,98,84,56,30.12,30.01,70,5,167,0.00
2013-1-4,81.0,70.9,65.0,70.0,67.2,64.0,99,88,61,30.22,30.09,8,4,12,0.00
2013-1-5,75.0,68.4,65.0,69.0,66.4,64.0,98,93,79,30.24,30.15,45,5,46,0.00
2013-1-6,81.0,71.8,65.0,72.0,68.3,64.0,99,89,68,30.19,30.04,43,9,46,0.00
2013-1-7,73.0,69.0,66.0,71.0,67.8,65.0,99,96,86,30.15,30.06,10,5,15,0.00
2013-1-8,81.0,73.7,69.0,72.0,70.1,68.0,98,89,70,30.19,30.07,31,7,46,0.00
2013-1-9,80.0,75.7,72.0,72.0,70.2,69.0,97,83,72,30.27,30.15,23,10,48,0.00
2013-1-10,78.0,74.5,71.0,69.0,66.6,64.0,86,76,61,30.29,30.17,39,10,128,0.00
2013-1-11,79.0,74.0,69.0,70.0,67.6,66.0,92,80,69,30.25,30.14,33,7,45,0.00
2013-1-12,79.0,73.7,68.0,69.0,66.9,66.0,93,79,63,30.17,30.08,70,7,72,0.00
2013-1-13,80.0,73.3,68.0,68.0,65.5,63.0,94,76,61,30.12,30.06,70,8,72,0.00
2013-1-14,79.0,71.9,65.0,67.0,64.9,63.0,95,79,60,30.16,30.10,14,5,32,0.00
2013-1-15,78.0,72.1,67.0,69.0,66.1,64.0,97,81,64,30.13,30.04,18,6,46,0.00
2013-1-16,80.0,72.1,64.0,69.0,66.8,63.0,98,84,63,30.10,30.00,30,6,104,0.00
2013-1-17,80.0,70.7,61.0,70.0,65.8,55.0,98,84,68,30.08,29.96,20,8,44,0.00
2013-1-18,71.0,63.3,52.0,58.0,53.8,47.0,82,71,62,30.22,30.08,74,11,74,0.00
2013-1-19,69.0,66.3,64.0,68.0,63.5,57.0,99,91,66,30.21,30.08,12,4,39,0.00
2013-1-20,79.0,69.2,62.0,68.0,63.3,-99.9,100,89,64,30.13,30.00,12,4,18,0.00
2013-1-21,80.0,70.7,65.0,71.0,67.0,64.0,98,88,65,30.06,29.95,11,4,40,0.00
2013-1-22,75.0,66.4,61.0,64.0,59.1,53.0,98,78,59,30.20,29.99,17,9,35,0.00
2013-1-23,73.0,64.3,58.0,59.0,55.6,53.0,92,74,50,30.29,30.19,54,8,54,0.00
2013-1-24,74.0,63.6,56.0,56.0,52.7,42.0,94,70,41,30.28,30.18,10,6,52,0.00
2013-1-25,75.0,63.7,55.0,61.0,56.3,53.0,96,79,53,30.27,30.17,35,6,67,0.00
2013-1-26,78.0,65.7,55.0,62.0,57.7,52.0,98,78,46,30.24,30.15,9,4,15,0.00
2013-1-27,77.0,68.7,60.0,62.0,59.4,57.0,96,74,52,30.28,30.18,11,6,31,0.00
2013-1-28,79.0,72.7,68.0,67.0,63.2,60.0,85,72,56,30.30,30.21,14,8,41,0.00
2013-1-29,78.0,71.8,65.0,69.0,66.4,64.0,97,83,68,30.23,30.11,14,7,56,0.00
2013-1-30,79.0,73.4,68.0,67.0,64.6,63.0,85,73,63,30.12,29.95,18,10,29,0.00
2013-1-31,65.0,62.1,55.0,62.0,53.6,44.0,97,73,57,30.17,30.05,15,8,23,0.00